#timestamp,LO_Frequency,Hit,StdDev 
1522861215.8,286046998.4,N
1522861235.7,286047000.5,N
1522861255.5,286046998.1,N
1522861275.4,286047002.8,N
1522861295.2,286047001.8,N
1522861315.0,286047001.4,N
1522861315.9,286047001.4,N
1522861335.8,286047001.7,N
1522861355.6,286047001.5,N
1522861375.5,286046999.8,N
1522861395.3,286047000.3,N
1522861415.1,286047001.1,N
1522861435.9,286047000.0,N
1522861455.7,286047000.2,N
1522861475.5,286046999.9,N
1522861495.4,286047000.1,N
1522861515.2,286047000.5,N
1522861535.1,286046998.5,N
1522861536.0,286046998.5,N
1522861555.8,286046998.1,N
1522861575.6,286047000.8,N
1522861595.5,286046998.4,N
1522861615.3,286046999.4,N
1522861635.2,286047002.2,N
1522861655.9,286047000.3,N
1522861675.7,286047000.6,N
1522861695.6,286047000.9,N
1522861715.4,286046998.5,N
1522861735.2,286046998.4,N
1522861755.1,286047001.2,N
1522861756.0,286047001.2,N
1522861775.8,286047000.8,N
1522861795.7,286047000.3,N
1522861815.5,286046999.9,N
1522861835.3,286047000.1,N
1522861855.2,286047000.3,N
1522861875.0,286047001.1,N
1522861875.9,286047001.1,N
1522861895.8,286047000.1,N
1522861915.6,286047001.0,N
1522861935.4,286047001.2,N
1522861955.3,286047000.3,N
1522861975.1,286047002.3,N
1522861995.9,286047002.2,N
1522862015.7,286047002.8,N
1522862035.5,286047000.3,N
1522862055.4,286047001.1,N
1522862075.2,286047000.9,N
1522862095.1,286047011.9,Y
1522862096.0,286046999.7,P
1522862115.8,286047001.9,P
1522862135.6,286047004.0,P
1522862155.5,286047002.4,N
1522862175.3,286047001.0,N
1522862195.2,286047001.0,N
1522862215.9,286046998.1,N
1522862235.7,286046998.9,N
1522862255.6,286046998.6,N
1522862275.4,286047000.7,N
1522862295.3,286046999.0,N
1522862315.1,286046998.8,N
1522862316.0,286046998.8,N
1522862335.8,286046998.8,N
1522862355.7,286046999.5,N
1522862375.5,286046998.3,N
1522862395.4,286046997.2,N
1522862415.2,286046995.2,N
1522862435.0,286046995.2,N
1522862435.9,286046995.2,N
1522862455.8,286046997.9,N
1522862475.6,286046993.4,N
1522862495.4,286046993.9,N
1522862515.3,286046993.5,N
1522862565.2,286046997.3,E
1522862575.1,286046997.2,N
1522862576.0,286046997.2,P
1522862595.8,286046998.4,P
1522862615.7,286047000.1,N
1522862635.5,286047001.1,N
1522862655.3,286046999.2,N
1522862675.2,286046995.7,Y
1522862695.0,286046997.2,P
1522862695.9,286046997.2,P
1522862715.7,286046999.6,N
1522862735.6,286046996.7,Y
1522862755.4,286047001.2,P
1522862775.3,286046996.6,N
1522862795.1,286046998.7,N
1522862815.8,286047000.9,N
1522862835.7,286046998.6,N
1522862855.5,286046999.4,N
1522862875.4,286046998.3,N
1522862895.2,286046998.6,N
1522862915.0,286046998.3,N
1522862915.9,286046998.3,N
1522862935.8,286046998.8,N
1522862955.6,286046998.4,N
1522862975.4,286046998.4,N
1522862995.3,286046997.0,N
1522863015.1,286046995.4,Y
1522863035.9,286046996.8,P
1522863055.7,286046997.0,P
1522863075.5,286046999.1,N
1522863095.4,286046996.9,Y
1522863115.2,286047000.7,P
1522863135.1,286047000.6,N
1522863136.0,286047000.6,N
1522863155.8,286046998.6,N
1522863175.6,286047000.1,N
1522863195.5,286047002.8,N
1522863215.3,286047000.1,N
1522863235.1,286047002.4,N
1522863255.9,286047000.1,N
1522863275.7,286047002.3,N
1522863295.6,286047001.2,N
1522863315.4,286046998.3,N
1522863335.2,286047002.7,N
1522863355.1,286047002.0,N
1522863356.0,286047002.0,N
1522863375.8,286047001.8,N
1522863395.7,286047001.8,N
1522863415.5,286047001.5,N
1522863435.3,286047001.6,N
1522863455.2,286047004.4,Y
1522863475.0,286047002.2,P
1522863475.9,286047002.2,P
1522863495.8,286047000.3,N
1522863515.6,286046999.8,N
1522863535.4,286047000.7,N
1522863555.3,286046996.9,Y
1522863575.1,286046995.8,P
1522863595.9,286046997.8,N
1522863615.7,286046997.2,N
1522863635.5,286046997.1,N
1522863655.4,286046997.1,N
1522863675.2,286046997.0,N
1522863695.0,286046997.2,N
1522863695.9,286046997.2,N
1522863715.8,286046996.6,N
1522863735.6,286046998.2,N
1522863755.5,286046998.1,N
1522863775.3,286046998.6,N
1522863795.1,286046998.4,N
1522863815.9,286046999.1,N
1522863835.7,286046999.2,N
1522863855.5,286046999.3,N
1522863875.4,286046999.0,N
1522863895.2,286046999.5,N
1522863915.1,286046999.3,N
1522863916.0,286046999.3,N
1522863935.8,286046998.1,N
1522863955.6,286047000.8,N
1522863975.5,286047000.4,N
1522863995.3,286047002.7,N
1522864015.2,286046999.8,N
1522864035.9,286047002.8,N
1522864055.7,286047001.2,N
1522864075.6,286047002.8,N
1522864095.4,286047000.5,N
1522864115.2,286047000.8,N
1522864135.1,286046999.9,N
1522864136.0,286046999.9,N
1522864155.8,286047000.6,N
1522864175.7,286047000.1,N
1522864195.5,286047002.8,N
1522864215.3,286047002.6,N
1522864235.2,286047004.4,N
1522864255.0,286047004.1,N
1522864255.9,286047004.1,N
1522864275.7,286047001.5,N
1522864295.6,286047004.3,N
1522864315.4,286047004.3,N
1522864335.3,286047001.7,N
1522864355.1,286047004.4,N
1522864356.0,286047004.4,N
1522864375.8,286047001.4,N
1522864395.7,286047001.7,N
1522864415.5,286047003.2,N
1522864435.4,286047004.2,N
1522864455.2,286047003.7,N
1522864475.0,286047003.5,N
1522864475.9,286047003.5,N
1522864495.8,286047004.2,N
1522864515.6,286047003.9,N
1522864535.5,286047004.4,N
1522864555.3,286047004.4,N
1522864575.1,286047001.4,N
1522864595.9,286047001.5,N
1522864615.7,286047002.7,N
1522864635.6,286047000.1,N
1522864655.4,286047000.1,N
1522864675.2,286047002.6,N
1522864695.1,286047004.4,N
1522864696.0,286047004.4,Y
1522864715.8,286047000.0,P
1522864735.7,286046999.9,N
1522864755.5,286047000.7,N
1522864775.3,286046998.1,N
1522864795.2,286047000.3,N
